• In Netherlands
  • List of Countries
  • For 7 days
  • Water Temperature
  • Satellite Maps
  • Weather Map
  • Weather Widgets
  • user-avatar
    Login

    Hourly Weather Mendoza

    Today, 28 July, Friday

    Time Temperature Precipitation Wind Pressure Humidity
    00:00 +13°C° 0 mm 3 mps 696 mmHg 37%
    01:00 +13°C° 0 mm 4 mps 695 mmHg 36%
    02:00 +13°C° 0 mm 4 mps 695 mmHg 40%
    03:00 +13°C° 0 mm 4 mps 695 mmHg 43%
    04:00 +12°C° 0 mm 4 mps 695 mmHg 46%
    05:00 +12°C° 0 mm 4 mps 695 mmHg 49%
    06:00 +12°C° 0 mm 4 mps 695 mmHg 52%
    07:00 +12°C° 0 mm 4 mps 696 mmHg 54%
    08:00 +14°C° 0 mm 4 mps 696 mmHg 53%
    09:00 +17°C° 0 mm 4 mps 696 mmHg 51%
    10:00 +19°C° 0 mm 4 mps 696 mmHg 50%
    11:00 +20°C° 0 mm 4 mps 696 mmHg 47%
    12:00 +20°C° 0 mm 4 mps 696 mmHg 44%
    13:00 +21°C° 0 mm 4 mps 696 mmHg 42%
    14:00 +21°C° 0 mm 4 mps 696 mmHg 44%
    15:00 +20°C° 0 mm 4 mps 696 mmHg 45%
    16:00 +20°C° 0 mm 4 mps 696 mmHg 47%
    17:00 +19°C° 0 mm 4 mps 697 mmHg 53%
    18:00 +17°C° 0 mm 3 mps 697 mmHg 58%
    19:00 +16°C° 0 mm 3 mps 698 mmHg 64%
    20:00 +14°C° 0 mm 3 mps 698 mmHg 66%
    21:00 +14°C° 0 mm 3 mps 698 mmHg 69%
    22:00 +13°C° 0 mm 4 mps 698 mmHg 71%
    23:00 +13°C° 0 mm 4 mps 698 mmHg 71%

    Tomorrow, 29 July, Saturday

    Time Temperature Precipitation Wind Pressure Humidity
    00:00 +13°C° 0 mm 4 mps 698 mmHg 71%
    01:00 +12°C° 0 mm 4 mps 698 mmHg 70%
    02:00 +12°C° 0 mm 4 mps 698 mmHg 69%
    03:00 +12°C° 0 mm 4 mps 698 mmHg 67%
    04:00 +12°C° 0 mm 5 mps 698 mmHg 66%
    05:00 +10°C° 0 mm 5 mps 699 mmHg 65%
    06:00 +10°C° 0 mm 5 mps 699 mmHg 64%
    07:00 +9°C° 0 mm 5 mps 699 mmHg 63%
    08:00 +10°C° 0 mm 5 mps 700 mmHg 63%
    09:00 +10°C° 0 mm 5 mps 700 mmHg 63%
    10:00 +12°C° 0 mm 5 mps 700 mmHg 62%
    11:00 +12°C° 0 mm 5 mps 700 mmHg 62%
    12:00 +12°C° 0 mm 5 mps 699 mmHg 61%
    13:00 +12°C° 0 mm 5 mps 699 mmHg 60%
    14:00 +12°C° 0 mm 5 mps 699 mmHg 59%
    15:00 +10°C° 0 mm 5 mps 699 mmHg 58%
    16:00 +11°C° 0 mm 4 mps 699 mmHg 56%
    17:00 +10°C° 0 mm 4 mps 700 mmHg 56%
    18:00 +10°C° 0 mm 4 mps 701 mmHg 56%
    19:00 +8°C° 0 mm 4 mps 701 mmHg 55%
    20:00 +7°C° 0 mm 4 mps 702 mmHg 55%
    21:00 +7°C° 0 mm 4 mps 702 mmHg 55%
    22:00 +6°C° 0 mm 4 mps 702 mmHg 55%
    23:00 +6°C° 0 mm 4 mps 702 mmHg 57%

    Day after tomorrow, 30 July, Sunday

    Time Temperature Precipitation Wind Pressure Humidity
    00:00 +5°C° 0 mm 4 mps 702 mmHg 58%
    01:00 +5°C° 0 mm 4 mps 702 mmHg 59%
    02:00 +5°C° 0 mm 4 mps 702 mmHg 59%
    03:00 +4°C° 0 mm 4 mps 702 mmHg 60%
    04:00 +4°C° 0 mm 4 mps 702 mmHg 60%
    05:00 +4°C° 0 mm 4 mps 702 mmHg 60%
    06:00 +4°C° 0 mm 4 mps 703 mmHg 60%
    07:00 +4°C° 0 mm 4 mps 703 mmHg 59%
    08:00 +5°C° 0 mm 4 mps 703 mmHg 55%
    09:00 +7°C° 0 mm 4 mps 703 mmHg 51%
    10:00 +8°C° 0 mm 4 mps 704 mmHg 47%
    11:00 +8°C° 0 mm 4 mps 703 mmHg 46%
    12:00 +10°C° 0 mm 4 mps 703 mmHg 46%
    13:00 +10°C° 0 mm 5 mps 702 mmHg 45%
    14:00 +10°C° 0 mm 4 mps 702 mmHg 47%
    15:00 +10°C° 0 mm 4 mps 702 mmHg 49%
    16:00 +10°C° 0 mm 4 mps 702 mmHg 50%
    17:00 +8°C° 0 mm 4 mps 702 mmHg 54%
    18:00 +8°C° 0 mm 3 mps 702 mmHg 57%
    19:00 +7°C° 0 mm 3 mps 703 mmHg 61%
    20:00 +7°C° 0 mm 3 mps 702 mmHg 63%
    21:00 +5°C° 0 mm 3 mps 702 mmHg 65%
    22:00 +5°C° 0 mm 3 mps 702 mmHg 67%
    23:00 +4°C° 0 mm 3 mps 702 mmHg 68%

    31 July, Monday

    Time Temperature Precipitation Wind Pressure Humidity
    00:00 +4°C° 0 mm 3 mps 701 mmHg 69%
    01:00 +4°C° 0 mm 3 mps 701 mmHg 71%
    02:00 +4°C° 0 mm 3 mps 700 mmHg 71%
    03:00 +4°C° 0 mm 3 mps 699 mmHg 71%
    04:00 +4°C° 0 mm 3 mps 699 mmHg 72%
    05:00 +5°C° 0 mm 2 mps 699 mmHg 71%
    06:00 +5°C° 0 mm 2 mps 699 mmHg 71%
    07:00 +5°C° 0 mm 2 mps 699 mmHg 71%
    08:00 +6°C° 0 mm 2 mps 699 mmHg 67%
    09:00 +8°C° 0 mm 2 mps 698 mmHg 64%
    10:00 +9°C° 0 mm 2 mps 698 mmHg 61%
    11:00 +10°C° 0 mm 2 mps 697 mmHg 58%
    12:00 +12°C° 0 mm 2 mps 697 mmHg 55%
    13:00 +12°C° 0 mm 2 mps 696 mmHg 53%
    14:00 +12°C° 0 mm 2 mps 696 mmHg 52%
    15:00 +12°C° 0 mm 2 mps 696 mmHg 52%
    16:00 +13°C° 0 mm 2 mps 695 mmHg 51%
    17:00 +12°C° 0 mm 2 mps 696 mmHg 55%
    18:00 +10°C° 0 mm 2 mps 696 mmHg 58%
    19:00 +9°C° 0 mm 2 mps 697 mmHg 62%
    20:00 +8°C° 0 mm 2 mps 697 mmHg 64%
    21:00 +8°C° 0 mm 2 mps 697 mmHg 66%
    22:00 +8°C° 0 mm 2 mps 697 mmHg 68%
    23:00 +7°C° 0 mm 2 mps 697 mmHg 69%

    1 August, Tuesday

    Time Temperature Precipitation Wind Pressure Humidity
    00:00 +7°C° 0 mm 3 mps 697 mmHg 71%
    01:00 +7°C° 0 mm 3 mps 697 mmHg 72%
    02:00 +7°C° 0 mm 3 mps 697 mmHg 73%
    03:00 +7°C° 0 mm 3 mps 697 mmHg 74%
    04:00 +7°C° 0 mm 3 mps 697 mmHg 75%
    05:00 +7°C° 0 mm 3 mps 697 mmHg 76%
    06:00 +7°C° 0 mm 3 mps 698 mmHg 77%
    07:00 +7°C° 0 mm 3 mps 699 mmHg 77%
    08:00 +8°C° 0 mm 3 mps 699 mmHg 71%
    09:00 +10°C° 0 mm 3 mps 699 mmHg 64%
    10:00 +11°C° 0 mm 3 mps 699 mmHg 58%
    11:00 +12°C° 0 mm 3 mps 699 mmHg 54%
    12:00 +13°C° 0 mm 3 mps 699 mmHg 49%
    13:00 +14°C° 0 mm 3 mps 699 mmHg 45%
    14:00 +14°C° 0 mm 3 mps 699 mmHg 45%
    15:00 +14°C° 0 mm 3 mps 700 mmHg 45%
    16:00 +14°C° 0 mm 3 mps 700 mmHg 45%
    17:00 +14°C° 0 mm 2 mps 701 mmHg 48%
    18:00 +13°C° 0 mm 2 mps 701 mmHg 52%
    19:00 +12°C° 0 mm 1 mps 702 mmHg 55%
    20:00 +11°C° 0 mm 1 mps 702 mmHg 55%
    21:00 +11°C° 0 mm 1 mps 702 mmHg 56%
    22:00 +10°C° 0 mm 1 mps 702 mmHg 56%
    23:00 +10°C° 0 mm 1 mps 702 mmHg 54%

    2 August, Wednesday

    Time Temperature Precipitation Wind Pressure Humidity
    00:00 +9°C° 0 mm 2 mps 702 mmHg 52%
    01:00 +9°C° 0 mm 2 mps 702 mmHg 50%
    02:00 +8°C° 0 mm 2 mps 702 mmHg 50%
    03:00 +8°C° 0 mm 2 mps 702 mmHg 50%
    04:00 +8°C° 0 mm 2 mps 701 mmHg 50%
    05:00 +8°C° 0 mm 2 mps 702 mmHg 49%
    06:00 +8°C° 0 mm 2 mps 702 mmHg 48%
    07:00 +8°C° 0 mm 2 mps 702 mmHg 48%
    08:00 +10°C° 0 mm 2 mps 702 mmHg 40%
    09:00 +14°C° 0 mm 2 mps 703 mmHg 32%
    10:00 +16°C° 0 mm 3 mps 703 mmHg 25%
    11:00 +17°C° 0 mm 3 mps 703 mmHg 22%
    12:00 +18°C° 0 mm 4 mps 702 mmHg 19%
    13:00 +20°C° 0 mm 4 mps 702 mmHg 17%
    14:00 +19°C° 0 mm 4 mps 702 mmHg 17%
    15:00 +19°C° 0 mm 4 mps 701 mmHg 18%
    16:00 +19°C° 0 mm 4 mps 701 mmHg 18%
    17:00 +17°C° 0 mm 3 mps 701 mmHg 20%
    18:00 +16°C° 0 mm 3 mps 702 mmHg 23%
    19:00 +15°C° 0 mm 2 mps 702 mmHg 25%
    20:00 +14°C° 0 mm 2 mps 701 mmHg 26%
    21:00 +13°C° 0 mm 2 mps 701 mmHg 27%
    22:00 +13°C° 0 mm 2 mps 701 mmHg 27%
    23:00 +12°C° 0 mm 2 mps 701 mmHg 29%
    Show more